Massena, NY

3:15 PM EDT on September 22, 2019 (GMT -0400)
Massena International-Richards

Weather History for KMSS - July, 2019

Change the Weather History Date:

Thursday, July 25, 2019

  Actual Average Record
Temperature  
Mean Temperature 69 °F 69 °F  
Max Temperature 84 °F 80 °F 92 °F (1963)
Min Temperature 54 °F 58 °F 43 °F (1953)
Degree Days  
Heating Degree Days 0 1  
Month to date heating degree days 25  
Since 1 June heating degree days 121  
Since 1 July heating degree days 25  
Cooling Degree Days 4 5  
Month to date cooling degree days 122  
Year to date cooling degree days 211  
Since 1 June cooling degree days 197  
Growing Degree Days 19 (Base 50)    
Moisture  
Dew Point 59 °F    
Average Humidity 71    
Maximum Humidity 93    
Minimum Humidity 43    
Precipitation  
Precipitation 0.00 in 0.12 in 1.82 in (2006)
Month to date precipitation 2.86  
Year to date precipitation 18.31  
Sea Level Pressure  
Sea Level Pressure 30.09 in    
Wind  
Wind Speed 4 mph (WSW)    
Max Wind Speed 13 mph    
Max Gust Speed -    
Visibility 10 miles    
Events      
T = Trace of Precipitation, MM = Missing Value Source: NWS Daily Summary

Daily Weather History Graph

Daily Weather History Graph

Search for Another Location

Airport or City:

Astronomy

Jul. 25, 2019 Rise Set
Actual Time 5:36 AM EDT 8:34 PM EDT
Civil Twilight 5:02 AM EDT 9:08 PM EDT
Nautical Twilight 4:18 AM EDT 9:52 PM EDT
Astronomical Twilight 3:25 AM EDT 10:45 PM EDT
Moon 12:29 AM EDT (7/25) 2:06 PM EDT (7/25)
Length of Visible Light 16h 06m
Length of Day
14h 57m
Last Quarter, 44% of the Moon is Illuminated
Jul 25
Last Quarter
Jul 31
New
Aug 7
First Quarter
Aug 15
Full
Aug 23
Last Quarter

Hourly Weather History & Observations

Time (EDT) Temp. Heat Index Dew Point Humidity Pressure Visibility Wind Dir Wind Speed Gust Speed Precip Events Conditions
12:53 AM 55.9 °F - 53.1 °F 90% 30.05 in 10.0 mi Calm Calm - N/A   Clear
1:53 AM 55.9 °F - 53.1 °F 90% 30.04 in 10.0 mi Calm Calm - N/A   Clear
2:53 AM 57.0 °F - 54.0 °F 89% 30.05 in 10.0 mi Calm Calm - N/A   Mostly Cloudy
3:53 AM 59.0 °F - 55.0 °F 87% 30.04 in 10.0 mi Calm Calm - N/A   Mostly Cloudy
4:53 AM 55.9 °F - 53.1 °F 90% 30.06 in 10.0 mi Calm Calm - N/A   Clear
5:53 AM 54.0 °F - 52.0 °F 93% 30.06 in 10.0 mi Calm Calm - N/A   Clear
6:53 AM 59.0 °F - 55.9 °F 90% 30.08 in 10.0 mi Calm Calm - N/A   Scattered Clouds
7:53 AM 64.9 °F - 59.0 °F 81% 30.09 in 10.0 mi SSW 5.8 mph - N/A   Mostly Cloudy
8:53 AM 69.1 °F - 60.1 °F 73% 30.11 in 10.0 mi SW 11.5 mph - N/A   Mostly Cloudy
9:53 AM 70.0 °F - 60.1 °F 71% 30.11 in 10.0 mi SW 8.1 mph - 0.00 in   Partly Cloudy
10:53 AM 73.9 °F - 61.0 °F 64% 30.11 in 10.0 mi WSW 5.8 mph - N/A   Clear
11:53 AM 77.0 °F - 61.0 °F 58% 30.11 in 10.0 mi SW 10.4 mph - N/A   Partly Cloudy
12:53 PM 80.1 °F 81.1 °F 61.0 °F 52% 30.10 in 10.0 mi West 9.2 mph - N/A   Clear
1:53 PM 81.0 °F 81.7 °F 61.0 °F 50% 30.09 in 10.0 mi WNW 11.5 mph - N/A   Partly Cloudy
2:53 PM 82.0 °F 82.7 °F 61.0 °F 49% 30.08 in 10.0 mi WSW 4.6 mph - N/A   Clear
3:38 PM 84.9 °F 85.0 °F 61.0 °F 44% 30.08 in 10.0 mi West 5.8 mph - N/A   Scattered Clouds
3:53 PM 82.9 °F 83.3 °F 61.0 °F 47% 30.07 in 10.0 mi WNW 4.6 mph - N/A   Scattered Clouds
4:53 PM 84.9 °F 84.8 °F 60.1 °F 43% 30.07 in 10.0 mi WSW 6.9 mph - N/A   Clear
5:53 PM 79.0 °F - 60.1 °F 52% 30.10 in 10.0 mi SW 12.7 mph - N/A   Partly Cloudy
6:53 PM 75.9 °F - 61.0 °F 60% 30.11 in 10.0 mi SSW 11.5 mph - N/A   Clear
7:53 PM 73.9 °F - 63.0 °F 68% 30.10 in 10.0 mi SSW 11.5 mph - N/A   Clear
8:53 PM 70.0 °F - 62.1 °F 76% 30.12 in 10.0 mi SW 5.8 mph - N/A   Clear
9:53 PM 66.9 °F - 62.1 °F 84% 30.14 in 10.0 mi SW 8.1 mph - N/A   Clear
10:53 PM 64.9 °F - 61.0 °F 87% 30.15 in 10.0 mi SW 5.8 mph - N/A   Clear
11:53 PM 64.9 °F - 60.1 °F 84% 30.16 in 10.0 mi SW 5.8 mph - N/A   Clear